Weather reports worldwide

Advertisment
Trier-Petrisberg, Germany (10609): temperature & dewpoint: 22.01.2020 07:00:00 - 28.01.2020 07:00:00 (CET)Trier-Petrisberg, Germany (10609): temperature 5cm & temperature -5cm: 22.01.2020 07:00:00 - 28.01.2020 07:00:00 (CET)Trier-Petrisberg, Germany (10609): temperature -20cm & temperature -100cm: 22.01.2020 07:00:00 - 28.01.2020 07:00:00 (CET)Trier-Petrisberg, Germany (10609): wind speed & gusts: 22.01.2020 07:00:00 - 28.01.2020 07:00:00 (CET)Trier-Petrisberg, Germany (10609): wind direction: 22.01.2020 07:00:00 - 28.01.2020 07:00:00 (CET)Trier-Petrisberg, Germany (10609): reduced air pressure: 22.01.2020 07:00:00 - 28.01.2020 07:00:00 (CET)Trier-Petrisberg, Germany (10609): visibility: 22.01.2020 07:00:00 - 28.01.2020 07:00:00 (CET)Trier-Petrisberg, Germany (10609): sunshine duration: 22.01.2020 07:00:00 - 28.01.2020 07:00:00 (CET)Trier-Petrisberg, Germany (10609): precipitation: 22.01.2020 07:00:00 - 28.01.2020 07:00:00 (CET)
Date & Time tt [°C] td [°C] tt 5cm [°C] tt -5cm [°C] tt -20cm [°C] tt -100cm [°C] ff [km/h] ff [kn] fx [km/h] fx [kn] dd ppp [hPa] vv [km] sd [min] rr [mm]
28.01.2020 07:00:00 5,3 4,4 4,8 4,9 5,1 5,7 22 12 78 42 SSW 995,6 13 0 3,1
28.01.2020 06:00:00 6,2 4,3 5,2 4,9 5,1 5,7 42 23 71 38 SSW 996,4 20 0 0,4
28.01.2020 05:00:00 5,9 3,8 4,9 4,9 5,1 5,7 39 21 61 33 SSW 997,8 10 0 0,2
28.01.2020 04:00:00 6,7 3,5 5,3 5,0 5,1 5,7 37 20 74 40 SSW 998,9 61 0 0,0
28.01.2020 03:00:00 6,2 4,4 5,1 5,1 5,1 5,7 35 19 59 32 S 998,9 39 0 0,3
28.01.2020 02:00:00 6,9 4,5 5,8 5,2 5,1 5,7 39 21 63 34 SSW 999,4 50 0 0,0
28.01.2020 01:00:00 6,8 5,0 5,9 5,1 5,1 5,6 46 25 68 37 SSW 999,6 57 0 1,3
28.01.2020 00:00:00 6,1 5,1 5,5 5,1 5,1 5,6 39 21 64 35 S 1000,3 4,9 0 1,2
27.01.2020 23:00:00 6,0 4,4 5,2 5,0 5,1 5,6 47 25 68 37 S 1000,8 8 0 0,7
27.01.2020 22:00:00 5,8 4,4 5,2 5,1 5,1 5,6 39 21 57 31 S 1002,4 14 0 0,5
27.01.2020 21:00:00 5,9 4,5 5,2 5,1 5,1 5,6 34 18 47 25 S 1003,5 27 0 0,3
27.01.2020 20:00:00 5,8 4,1 5,0 5,2 5,1 5,6 33 18 53 29 S 1004,8 18 0 0,2
27.01.2020 19:00:00 6,1 4,9 5,4 5,3 5,1 5,6 32 17 46 25 S 1005,8 12 0 0,9
27.01.2020 18:00:00 6,2 5,2 5,6 5,4 5,0 5,6 30 16 42 23 S 1006,4 15 0 0,6
27.01.2020 17:00:00 6,4 5,0 5,8 5,5 5,0 5,6 29 16 45 25 S 1007,1 18 0 0,6
27.01.2020 16:00:00 6,4 5,2 5,8 5,6 4,9 5,6 32 18 48 26 S 1008,0 13 0 0,6
27.01.2020 15:00:00 6,4 5,1 5,9 5,6 4,8 5,6 28 15 49 27 S 1008,5 14 0 0,9
27.01.2020 14:00:00 6,5 5,3 5,9 5,6 4,8 5,6 34 18 50 27 S 1009,4 9 0 1,1
27.01.2020 13:00:00 6,5 5,4 6,1 5,4 4,7 5,6 32 18 46 25 S 1010,0 13 0 2,1
27.01.2020 12:00:00 6,5 5,3 6,0 5,2 4,6 5,6 32 17 54 29 S 1011,3 11 0 0,4
27.01.2020 11:00:00 6,4 5,0 5,9 4,9 4,5 5,6 31 17 48 26 S 1011,9 16 0 0,9
27.01.2020 10:00:00 6,2 4,9 5,6 4,7 4,5 5,6 29 16 48 26 S 1012,3 10 0 0,0
27.01.2020 09:00:00 6,3 4,7 5,5 4,5 4,4 5,5 32 17 48 26 S 1012,6 24 0 0,2
27.01.2020 08:00:00 6,2 4,7 5,4 4,5 4,4 5,5 34 18 49 26 S 1013,2 8 0 0,3
27.01.2020 07:00:00 6,4 4,7 5,5 4,4 4,4 5,5 31 17 45 24 S 1013,6 16 0 0,0
27.01.2020 06:00:00 6,4 4,3 5,4 4,3 4,3 5,5 27 15 43 23 S 1014,1 21 0 0,0
27.01.2020 05:00:00 6,6 4,3 5,9 4,1 4,3 5,5 25 14 36 20 S 1014,5 28 0 0,0
27.01.2020 04:00:00 6,1 4,1 5,1 4,0 4,3 5,5 18 10 31 17 SSW 1015,2 25 0 0,0
27.01.2020 03:00:00 6,2 4,3 5,1 3,8 4,3 5,5 21 12 32 18 S 1016,1 25 0 0,0
27.01.2020 02:00:00 5,3 4,2 4,5 3,6 4,3 5,5 18 10 31 17 SSW 1016,3 10 0 0,0
27.01.2020 01:00:00 4,3 3,6 3,8 3,4 4,3 5,5 13 7 17 9 SSW 1016,5 7 0 0,0
27.01.2020 00:00:00 3,8 3,4 3,5 3,2 4,4 5,5 13 7 16 9 WSW 1017,1 4,0 0 0,0
26.01.2020 23:00:00 2,8 2,6 1,9 3,2 4,5 5,5 4 2 9 5 SW 1017,2 0,2 0 0,0
26.01.2020 22:00:00 3,2 2,9 1,4 3,5 4,6 5,5 5 3 9 5 WSW 1017,7 2,5 0 0,0
26.01.2020 21:00:00 2,9 2,5 2,0 3,7 4,7 5,4 3 1 9 5 WSW 1017,9 1,6 0 0,0
26.01.2020 20:00:00 3,4 3,0 1,9 4,0 4,8 5,4 3 1 6 3 N 1017,9 2,9 0 0,0
26.01.2020 19:00:00 3,7 3,0 0,8 4,8 4,8 5,4 4 2 5 3 NE 1017,8 3,8 0 0,0
26.01.2020 18:00:00 4,1 3,2 2,4 5,4 4,7 5,4 5 3 8 4 NE 1018,1 6 0 0,0
26.01.2020 17:00:00 5,4 3,3 3,7 6,5 4,5 5,4 4 2 9 5 SW 1017,7 9 20 0,0
26.01.2020 16:00:00 5,5 3,3 5,8 6,9 4,3 5,4 4 2 13 7 SW 1017,6 8 35 0,0
26.01.2020 15:00:00 5,7 3,1 7,0 6,8 4,0 5,4 10 5 18 10 SW 1018,0 9 56 0,0
26.01.2020 14:00:00 4,9 3,0 7,1 5,8 3,8 5,4 9 5 18 10 WSW 1018,5 10 26 0,0
26.01.2020 13:00:00 3,4 2,7 5,4 4,6 3,7 5,4 8 4 13 7 SSW 1019,0 4,7 9 0,0
26.01.2020 12:00:00 1,9 1,7 3,1 3,7 3,6 5,4 5 3 9 5 WSW 1020,0 0,1 0 0,0
26.01.2020 11:00:00 1,3 1,0 2,1 3,1 3,6 5,4 4 2 6 3 S 1020,2 0,1 0 0,0
26.01.2020 10:00:00 0,8 0,5 1,3 2,7 3,6 5,4 4 2 8 5 ESE 1020,0 0,1 0 0,0
26.01.2020 09:00:00 0,4 0,2 0,8 2,6 3,6 5,4 3 2 7 4 W 1020,0 0,1 0 0,0
26.01.2020 08:00:00 0,6 0,3 0,7 2,6 3,7 5,4 5 3 8 5 NNE 1019,7 0,1 0 0,0
26.01.2020 07:00:00 0,5 0,3 0,7 2,7 3,7 5,4 3 2 10 6 N 1019,6 0,1 0 0,0
26.01.2020 06:00:00 0,7 0,5 0,9 2,8 3,7 5,4 6 3 10 6 NE 1019,6 0,2 0 0,0
26.01.2020 05:00:00 0,8 0,5 1,0 2,9 3,8 5,4 5 3 11 6 NE 1019,9 0,1 0 0,0
26.01.2020 04:00:00 1,0 0,6 1,2 3,0 3,8 5,4 4 2 10 6 NNE 1020,0 0,2 0 0,0
26.01.2020 03:00:00 1,3 1,0 1,5 3,0 3,8 5,4 6 3 9 5 NE 1020,4 0,1 0 0,0
26.01.2020 02:00:00 1,5 1,3 1,6 3,1 3,8 5,4 6 3 9 5 NNE 1020,7 0,1 0 0,0
26.01.2020 01:00:00 1,7 1,5 1,9 3,2 3,8 5,4 4 2 9 5 NE 1021,1 0,1 0 0,0
26.01.2020 00:00:00 1,8 1,6 1,9 3,2 3,8 5,4 6 3 10 5 NE 1021,4 0,1 0 0,0
25.01.2020 23:00:00 1,9 1,6 2,1 3,3 3,8 5,4 5 3 6 3 NNE 1021,6 0,2 0 0,0
25.01.2020 22:00:00 1,9 1,7 2,2 3,4 3,8 5,4 4 2 14 8 NE 1021,9 0,1 0 0,0
25.01.2020 21:00:00 2,1 2,0 2,2 3,5 3,8 5,4 8 5 13 7 NE 1022,0 0,2 0 0,0
25.01.2020 20:00:00 2,4 2,1 2,5 3,6 3,8 5,4 7 4 11 6 NNE 1022,0 0,2 0 0,0
25.01.2020 19:00:00 2,5 2,3 2,6 3,8 3,8 5,4 4 2 5 3 NNW 1022,1 0,2 0 0,0
25.01.2020 18:00:00 2,4 2,2 2,7 4,0 3,8 5,4 3 2 5 3 WNW 1022,1 0,2 0 0,0
25.01.2020 17:00:00 2,4 2,2 2,7 4,3 3,7 5,4 3 2 7 4 SE 1021,9 0,1 0 0,0
25.01.2020 16:00:00 2,7 2,4 3,2 4,5 3,5 5,4 0 0 7 4 N 1022,1 0,7 0 0,0
25.01.2020 15:00:00 2,7 2,3 3,6 4,5 3,4 5,4 4 2 12 6 WSW 1022,4 0,3 0 0,0
25.01.2020 14:00:00 2,6 2,2 3,7 4,1 3,3 5,4 6 4 13 7 SW 1023,0 1,3 0 0,0
25.01.2020 13:00:00 2,4 2,1 3,3 3,7 3,1 5,4 7 4 11 6 S 1023,7 0,4 0 0,0
25.01.2020 12:00:00 2,0 1,6 3,0 3,1 3,0 5,4 6 3 8 4 SSW 1024,2 0,2 0 0,0
25.01.2020 11:00:00 1,3 1,1 2,0 2,5 3,0 5,4 3 2 6 4 SSW 1024,2 0,1 0 0,0
25.01.2020 10:00:00 0,8 0,4 1,3 2,1 3,0 5,4 4 2 5 3 SSW 1024,0 0,1 0 0,0
25.01.2020 09:00:00 0,3 0,0 0,6 1,9 3,0 5,4 0 0 3 2 N 1023,8 0,1 0 0,0
25.01.2020 08:00:00 0,1 -0,3 0,4 1,9 3,0 5,4 2 1 3 2 WNW 1023,4 0,5 0 0,0
25.01.2020 07:00:00 -0,1 -0,4 0,2 1,9 3,0 5,4 0 0 4 2 N 1023,4 0,4 0 0,0
25.01.2020 06:00:00 -0,4 -0,7 -0,2 1,9 3,1 5,4 3 2 5 3 E 1023,3 0,1 0 0,0
25.01.2020 05:00:00 -0,6 -1,0 -0,3 1,9 3,1 5,4 5 3 7 4 ESE 1023,6 0,1 0 0,0
25.01.2020 04:00:00 -0,6 -0,8 -0,1 2,0 3,1 5,4 4 2 8 5 ESE 1023,9 0,1 0 0,0
25.01.2020 03:00:00 -0,2 -0,5 0,1 2,0 3,1 5,4 5 3 8 5 SE 1023,9 0,1 0 0,0
25.01.2020 02:00:00 -0,1 -0,5 0,2 2,1 3,1 5,4 4 2 7 4 ESE 1024,1 0,2 0 0,0
25.01.2020 01:00:00 0,1 -0,3 0,3 2,1 3,2 5,4 3 2 9 5 S 1024,2 0,2 0 0,0
25.01.2020 00:00:00 0,1 -0,3 0,3 2,2 3,2 5,4 7 4 10 5 S 1024,4 0,3 0 0,0
24.01.2020 23:00:00 0,2 -0,4 0,4 2,3 3,2 5,4 5 3 10 6 WSW 1024,6 1,4 0 0,0
24.01.2020 22:00:00 0,5 -0,2 0,7 2,3 3,2 5,4 5 3 14 8 SW 1024,6 1,6 0 0,0
24.01.2020 21:00:00 0,6 -0,3 0,7 2,5 3,2 5,4 9 5 18 10 SSW 1024,2 2,3 0 0,0
24.01.2020 20:00:00 0,5 -0,6 0,8 2,6 3,2 5,4 2 1 7 4 NW 1024,7 3,3 0 0,0
24.01.2020 19:00:00 0,8 -0,3 0,9 2,8 3,2 5,4 3 1 10 5 WNW 1024,6 3,3 0 0,0
24.01.2020 18:00:00 1,0 -0,6 1,1 3,1 3,2 5,4 4 2 11 6 SW 1024,1 4,3 0 0,0
24.01.2020 17:00:00 1,2 -0,8 1,5 3,4 3,1 5,4 4 2 12 6 WSW 1023,7 6 0 0,0
24.01.2020 16:00:00 1,3 -1,2 1,9 3,7 2,9 5,4 8 4 13 7 WSW 1023,8 7 3 0,0
24.01.2020 15:00:00 1,8 -0,8 3,3 3,6 2,7 5,5 6 3 12 7 SSW 1023,8 7 4 0,0
24.01.2020 14:00:00 1,0 -1,6 2,3 3,2 2,6 5,5 5 3 10 5 SW 1024,6 8 0 0,0
24.01.2020 13:00:00 0,6 -2,0 2,4 2,4 2,5 5,5 3 1 11 6 W 1025,2 8 0 0,0
24.01.2020 12:00:00 0,1 -1,9 1,2 1,5 2,4 5,5 9 5 14 7 S 1025,7 7 0 0,0
24.01.2020 11:00:00 -0,5 -2,1 0,1 0,9 2,4 5,5 6 4 11 6 SSW 1026,1 6 0 0,0
24.01.2020 10:00:00 -1,0 -2,5 -0,7 0,8 2,5 5,5 9 5 15 8 SSW 1026,1 6 0 0,0
24.01.2020 09:00:00 -1,1 -2,7 -1,0 0,8 2,5 5,5 5 3 13 7 S 1026,2 7 0 0,0
24.01.2020 08:00:00 -1,0 -2,6 -1,0 0,8 2,5 5,5 10 6 13 7 SSE 1025,8 7 0 0,0
24.01.2020 07:00:00 -1,0 -2,7 -1,0 0,9 2,5 5,5 5 3 11 6 SW 1026,1 7 0 0,0
24.01.2020 06:00:00 -0,9 -2,5 -0,9 0,9 2,6 5,5 9 5 13 7 S 1025,8 8 0 0,0
24.01.2020 05:00:00 -0,7 -2,4 -0,8 0,9 2,6 5,5 7 4 11 6 S 1025,9 9 0 0,0
24.01.2020 04:00:00 -0,6 -2,2 -0,7 0,9 2,6 5,5 9 5 16 9 S 1026,4 10 0 0,0
24.01.2020 03:00:00 -0,4 -1,9 -0,7 0,9 2,7 5,5 4 2 11 6 SE 1027,1 8 0 0,0
24.01.2020 02:00:00 -0,3 -2,0 -0,8 0,9 2,7 5,5 6 4 13 7 SSW 1027,4 10 0 0,0
24.01.2020 01:00:00 -0,3 -2,1 -0,8 0,9 2,8 5,5 7 4 16 9 S 1028,0 14 0 0,0
24.01.2020 00:00:00 -0,8 -2,0 -1,1 1,0 2,9 5,5 5 3 8 4 S 1028,0 10 0 0,0
23.01.2020 23:00:00 -1,0 -2,2 -1,4 1,0 2,9 5,5 3 2 8 4 S 1028,3 9 0 0,0
23.01.2020 22:00:00 -1,8 -2,9 -3,8 1,1 3,0 5,5 7 4 16 9 NNE 1028,3 7 0 0,0
23.01.2020 21:00:00 -1,2 -2,5 -3,0 1,3 3,1 5,5 10 5 14 8 NNE 1028,3 10 0 0,0
23.01.2020 20:00:00 -1,0 -2,4 -3,0 1,5 3,2 5,6 10 5 21 12 NE 1028,6 12 0 0,0
23.01.2020 19:00:00 -0,4 -2,0 -1,8 1,9 3,2 5,6 12 7 23 12 NE 1028,6 15 0 0,0
23.01.2020 18:00:00 0,2 -1,5 -0,8 2,7 3,2 5,6 13 7 28 15 NE 1028,3 19 0 0,0
23.01.2020 17:00:00 1,2 -0,7 1,1 3,1 3,2 5,6 19 10 29 15 NNE 1028,3 19 0 0,0
23.01.2020 16:00:00 1,5 -0,5 1,7 3,4 3,1 5,6 19 10 31 17 NNE 1028,9 20 0 0,0
23.01.2020 15:00:00 1,9 -0,3 2,3 3,6 2,9 5,6 16 9 26 14 NNE 1029,6 25 0 0,0
23.01.2020 14:00:00 2,1 0,0 3,1 3,5 2,8 5,6 16 9 28 15 NNE 1030,6 28 0 0,0
23.01.2020 13:00:00 2,0 -0,2 3,1 2,9 2,7 5,6 15 8 24 13 NNE 1031,7 24 0 0,0
23.01.2020 12:00:00 1,5 -0,5 2,4 2,3 2,6 5,6 15 8 23 13 NNE 1032,4 28 0 0,0
23.01.2020 11:00:00 1,2 -0,6 1,6 1,8 2,6 5,7 13 7 24 13 NNE 1032,6 36 0 0,0
23.01.2020 10:00:00 0,9 -0,8 1,1 1,5 2,5 5,7 17 9 29 16 NNE 1032,9 40 0 0,0
23.01.2020 09:00:00 0,7 -0,9 0,6 1,4 2,5 5,7 15 8 29 16 NNE 1033,3 30 0 0,0
23.01.2020 08:00:00 0,8 -0,6 0,6 1,3 2,5 5,7 16 9 25 14 NNE 1033,1 26 0 0,0
23.01.2020 07:00:00 1,0 -0,2 0,8 1,3 2,5 5,7 14 8 24 13 NNE 1033,2 18 0 0,0
23.01.2020 06:00:00 1,1 -0,2 0,9 1,2 2,5 5,7 13 7 23 12 NNE 1033,3 31 0 0,0
23.01.2020 05:00:00 1,1 -0,1 0,9 1,1 2,5 5,7 16 8 22 12 NNE 1033,8 16 0 0,0
23.01.2020 04:00:00 1,1 0,0 0,8 0,9 2,5 5,7 14 7 23 12 NNE 1034,6 12 0 0,0
23.01.2020 03:00:00 1,2 0,2 0,8 0,9 2,5 5,8 16 9 27 15 NNE 1035,4 12 0 0,0
23.01.2020 02:00:00 0,6 0,1 0,4 0,8 2,5 5,8 18 10 24 13 N 1036,1 2,8 0 0,0
23.01.2020 01:00:00 0,6 0,1 0,3 0,8 2,5 5,8 14 8 21 11 NNE 1036,9 3,5 0 0,0
23.01.2020 00:00:00 0,2 -0,5 0,0 0,8 2,6 5,8 11 6 18 10 NNE 1036,8 3,0 0 0,0
22.01.2020 23:00:00 0,2 -1,1 -0,1 0,9 2,6 5,8 11 6 29 16 NNE 1036,7 11 0 0,0
22.01.2020 22:00:00 -0,1 -1,6 -0,4 0,9 2,6 5,8 14 8 23 12 NNE 1036,7 14 0 0,0
22.01.2020 21:00:00 -0,8 -2,6 -0,9 0,9 2,7 5,8 6 3 17 9 N 1036,8 16 0 0,0
22.01.2020 20:00:00 -1,5 -2,9 -2,0 1,0 2,7 5,8 11 6 26 14 NNE 1036,7 12 0 0,0
22.01.2020 19:00:00 -1,6 -3,0 -2,6 1,1 2,8 5,9 16 9 34 19 NNE 1036,2 9 0 0,0
22.01.2020 18:00:00 -0,7 -2,8 -2,0 1,4 2,7 5,9 17 9 24 13 NNE 1035,8 14 10 0,0
22.01.2020 17:00:00 0,9 -2,4 -0,7 2,2 2,6 5,9 14 8 21 11 N 1035,3 18 60 0,0
22.01.2020 16:00:00 2,8 -2,4 2,6 2,4 2,5 5,9 11 6 34 19 NE 1035,2 27 60 0,0
22.01.2020 15:00:00 2,6 -2,8 3,8 1,4 2,4 5,9 22 12 33 18 NNE 1035,4 30 60 0,0
22.01.2020 14:00:00 1,5 -2,1 3,4 0,4 2,4 5,9 14 8 23 12 N 1036,2 17 60 0,0
22.01.2020 13:00:00 0,7 -2,5 2,7 0,4 2,4 6,0 12 7 27 14 NNE 1037,2 19 60 0,0
22.01.2020 12:00:00 -1,2 -2,7 0,7 0,4 2,5 6,0 5 3 9 5 N 1037,3 7 42 0,0
22.01.2020 11:00:00 -2,9 -4,2 -1,8 0,3 2,5 6,0 3 2 10 5 NE 1037,5 3,2 52 0,0
22.01.2020 10:00:00 -4,6 -5,5 -3,8 0,3 2,6 6,0 0 0 6 3 N 1037,3 0,3 38 0,0
22.01.2020 09:00:00 -4,7 -5,6 -6,3 0,3 2,6 6,0 5 3 9 5 N 1037,6 10 13 0,0
22.01.2020 08:00:00 -5,0 -5,7 -5,3 0,4 2,7 6,0 8 4 19 10 NE 1037,8 0,7 0 0,0
22.01.2020 07:00:00 -4,2 -5,0 -6,7 0,5 2,8 6,0 5 3 16 8 N 1037,2 8 0 0,0

tt = temperature
td = dewpoint
tt 5cm = temperature 5cm
tt -5cm = temperature -5cm
tt -20cm = temperature -20cm
tt -100cm = temperature -100cm
ff = wind speed
fx = gusts
dd = wind direction
ppp = reduced air pressure
vv = visibility
sd = sunshine duration
rr = precipitation

Next stations